Regional Weather Roundup
Issued by NWS Sterling, VA

Home | Current Version | Previous Version | Graphics & Text | Print | Product List | Glossary On
Versions: 1 2 3 4 5 6 7 8 9 10 11 12 13 14 15 16 17 18 19 20 21 22 23 24 25 26 27 28 29 30 31 32 33 34 35 36 37 38 39 40 41 42 43 44 45 46 47 48 49 50
026
ASUS41 KLWX 292110
RWRLWX

REGIONAL WEATHER ROUNDUP
NATIONAL WEATHER SERVICE BALTIMORE MD/WASHINGTON DC
500 PM EDT FRI APR 29 2016

Note: "FAIR" indicates few or no clouds below 12,000 feet
with no significant weather and/or obstructions to visibility.
 TC=TEMPERATURE CELSIUS

 * =Non NWS site. Station does not report precipitation (e.g. rain,
    snow, etc.), thunder, or fog.

DCZ001-MDZ009-015-VAZ040>042-051-053>054-292200-
WASHINGTON METRO

CITY           SKY/WX    TMP DP  RH WIND       PRES   REMARKS
WASHINGTON NAT CLOUDY    55  49  80 E5        30.03F
DULLES         CLOUDY    55  48  77 SE3       30.01F
ANDREWS AFB    CLOUDY    54  50  87 E5        30.02F
FT BELVOIR     CLOUDY    56  49  80 SE1       30.02S
QUANTICO       CLOUDY    57  50  77 E5        30.02F
COLLEGE PARK*  CLOUDY    52  46  82 E5        30.03S
LEESBURG*      CLOUDY    55  52  88 S5        30.02F
MANASSAS*      CLOUDY    55  52  88 CALM      30.01F
GAITHERSBURG*  CLOUDY    52  46  82 E3        30.06S

$$

MDZ006>007-011-014-292200-
BALTIMORE METRO

CITY           SKY/WX    TMP DP  RH WIND       PRES   REMARKS
BWI AIRPORT    CLOUDY    52  48  86 E8        30.02F
MD SCIENCE CTR   N/A     52  47  83 MISG      30.04F
MARTIN STATE   CLOUDY    54  52  94 E7        30.05F
ANNAPOLIS      CLOUDY    53  49  86 MISG      30.03F
FORT MEADE*    CLOUDY    52  46  82 E5        30.05F

$$

MDZ012-015-019>023-292200-
MARYLAND EASTERN SHORE

CITY           SKY/WX    TMP DP  RH WIND       PRES   REMARKS
OCEAN CITY     CLOUDY    52  48  86 N12       30.04R
SALISBURY      CLOUDY    52  49  89 NE12      30.03F
CAMBRIDGE*     CLOUDY    52  48  87 NE7       30.02F
EASTON*        CLOUDY   N/A N/A N/A E6        30.07F

$$

MDZ017>025-292200-
SOUTHERN MARYLAND

CITY           SKY/WX    TMP DP  RH WIND       PRES   REMARKS
PATUXENT RIVER CLOUDY    54  50  86 NE7       30.01F
ST INIGOES     CLOUDY    56  51  84 NE8       30.00F
LEONARDTOWN*   CLOUDY    54  50  87 NE3       30.03F

$$

MDZ003>005-292200-
NORTH CENTRAL MARYLAND

CITY           SKY/WX    TMP DP  RH WIND       PRES   REMARKS
FREDERICK*     CLOUDY    52  50  93 VRB3      30.06R FOG
HAGERSTOWN APT CLOUDY    52  46  80 VRB3      30.01F
WESTMINSTER*   CLOUDY    52  48  87 S3        30.03S

$$

MDZ501>502-292200-
WESTERN MARYLAND

CITY           SKY/WX    TMP DP  RH WIND       PRES   REMARKS
OAKLAND*       PTSUNNY   59  43  55 W8G18     29.97R
CUMBERLAND*    CLOUDY    54  50  87 NE5       30.03S

$$

VAZ025>031-292200-
SHENANDOAH VALLEY

CITY           SKY/WX    TMP DP  RH WIND       PRES   REMARKS
WINCHESTER*    CLOUDY    54  50  87 E5        29.99S
FRONT ROYAL*   CLOUDY    55  52  88 NE8       29.96F
LURAY*         FAIR      63  55  77 NE5       29.94F
NEW MARKET*    FAIR      61  54  79 N10       29.93F
STAUNTON*      FAIR      64  55  74 SE9       29.96S
WAYNESBORO*    FAIR      56  51  84 MISG      29.95S

$$

WVZ021-048>050-054>055-292200-
EASTERN WEST VIRGINIA PANHANDLE

CITY           SKY/WX    TMP DP  RH WIND       PRES   REMARKS
MARTINSBURG    CLOUDY    52  48  86 E3        30.00S FOG
PETERSBURG*    FAIR      65  56  72 CALM      29.93F

$$

VAZ036>039-050-292200-
CENTRAL FOOTHILLS

CITY           SKY/WX    TMP DP  RH WIND       PRES   REMARKS
CHARLOTTESVILL CLOUDY    56  50  80 SE3       29.99F
CULPEPER*      CLOUDY    55  52  88 CALM      30.01F
ORANGE*        CLOUDY    55  54  94 CALM      30.02F
GORDONSVILLE*  CLOUDY    55  52  92 E3        30.00F
WARRENTON*     CLOUDY    56  48  75 E3        30.00F

$$

VAZ055>057-292200-
NORTH AND CENTRAL PIEDMONT

CITY           SKY/WX    TMP DP  RH WIND       PRES   REMARKS
FREDERICKSBRG* CLOUDY    56  55  96 CALM      30.00F
STAFFORD*      CLOUDY    55  50  82 NE6       30.05F

$$

NCZ024-NYZ072-PAZ021-071-VAZ022-071-292200-
OTHER REGIONAL OBSERVATIONS

CITY           SKY/WX    TMP DP  RH WIND       PRES   REMARKS
NEW YORK CITY  CLOUDY    54  35  48 E3        30.10F
PHILADELPHIA   CLOUDY    51  42  71 NE8       30.09R
PITTSBURGH     CLOUDY    57  47  69 NW9       29.99S
ROANOKE        FAIR      83  45  26 W9G17     29.91F
RICHMOND       CLOUDY    61  53  75 NE6       29.99F
RALEIGH        MOSUNNY   77  59  53 VRB7      29.94F

$$

ANZ530>537-292200-
MARINE OBSERVATIONS

STATION/POSITION TIME  TEMP    WIND        PRES
                       AIR SEA DIR/SP/G
                 (UTC) (F)     (DEG/KT/KT) (MB)
THOMAS PT LIGHT  2100   52 57  110/  6/  8 1018.0F
BALT KEY BRIDGE  2000   52      70/  5/  8 1017.3F
COVE POINT       2000   53      60/  5/  7 1017.8R
LEWISETTA        2000   55 60   60/  3/  4 1016.7R
SOLOMONS ISLAND  2000   54 60   10/  6/  8   N/A
PINEY POINT      2012           90/  4/  5   N/A

$$





USA.gov is the U.S. government's official web portal to all federal, state and local government web resources and services.